Location: Ohmer (historical)
(38.0096°N, 122.0227°W)
Time: 05:43:26
(UTC+00:00)

ISS - Pass Details

Date: 14 February 2026
Orbit: 416 x 427 km, 51.6° (Epoch: 5 March)

Event Time Altitude Azimuth Distance (km) Brightness Sun altitude
Exits shadow 13:04:42 46° 114° (ESE) 570 -2.8 -23.1°
Drops below altitude 10° 13:07:36 10° 61° (ENE) 1,491 -0.1 -22.5°
Sets 13:09:44 0° 55° (NE) 2,356 0.9 -22.1°
